| time (UTC) | temp C | wind direction | speed KPH | gust KPH | rain 1hr cm | rain 24hr cm | rain mn cm | humidity % | barometer mb |
| 20260510031524 | 10 | 167 | 4.8 | 14.5 | 0.00 | 0.51 | 0.08 | 31 | 1006.5 |
| 20260510030027 | 9 | 156 | 1.6 | 8.0 | 0.00 | 0.51 | 0.08 | 34 | 1006.4 |
| 20260510024513 | 10 | 147 | 1.6 | 8.0 | 0.00 | 0.51 | 0.08 | 36 | 1006.3 |
| 20260510023007 | 10 | 134 | 0.0 | 0.0 | 0.00 | 0.51 | 0.08 | 37 | 1006.2 |
| 20260510021601 | 10 | 144 | 1.6 | 4.8 | 0.00 | 0.51 | 0.08 | 37 | 1006.3 |
| 20260510020057 | 10 | 150 | 0.0 | 4.8 | 0.00 | 0.51 | 0.08 | 39 | 1006.5 |
| 20260510014553 | 10 | 148 | 0.0 | 3.2 | 0.00 | 0.51 | 0.08 | 44 | 1006.2 |
| 20260510013049 | 10 | 150 | 1.6 | 4.8 | 0.00 | 0.51 | 0.08 | 50 | 1006.2 |
| 20260510011514 | 11 | 174 | 0.0 | 4.8 | 0.00 | 0.51 | 0.08 | 51 | 1006.1 |
| 20260510010009 | 11 | 218 | 0.0 | 3.2 | 0.00 | 0.51 | 0.08 | 46 | 1006.0 |
| 20260510004502 | 11 | 175 | 0.0 | 1.6 | 0.00 | 0.51 | 0.08 | 46 | 1005.8 |
| 20260510003100 | 11 | 175 | 0.0 | 3.2 | 0.00 | 0.51 | 0.08 | 47 | 1005.9 |
| 20260510001556 | 11 | 163 | 0.0 | 0.0 | 0.00 | 0.51 | 0.08 | 49 | 1005.9 |
| 20260510000050 | 11 | 163 | 0.0 | 1.6 | 0.00 | 0.51 | 0.08 | 50 | 1005.7 |
| 20260509234547 | 11 | 146 | 0.0 | 3.2 | 0.00 | 0.51 | 0.08 | 52 | 1005.7 |
| 20260509233039 | 11 | 161 | 1.6 | 4.8 | 0.00 | 0.51 | 0.08 | 56 | 1005.6 |
| 20260509231539 | 11 | 201 | 1.6 | 9.7 | 0.00 | 0.51 | 0.08 | 58 | 1005.4 |
| 20260509230032 | 11 | 167 | 3.2 | 11.3 | 0.00 | 0.51 | 0.08 | 58 | 1005.3 |
| 20260509224529 | 11 | 196 | 11.3 | 22.5 | 0.00 | 0.51 | 0.08 | 57 | 1005.1 |
| 20260509223021 | 11 | 189 | 6.4 | 11.3 | 0.00 | 0.51 | 0.08 | 55 | 1005.2 |
| 20260509221519 | 11 | 177 | 6.4 | 16.1 | 0.00 | 0.51 | 0.08 | 54 | 1005.2 |
| 20260509220015 | 11 | 159 | 8.0 | 19.3 | 0.00 | 0.51 | 0.08 | 55 | 1005.2 |
| 20260509214508 | 11 | 184 | 6.4 | 14.5 | 0.00 | 0.51 | 0.08 | 53 | 1005.5 |
| 20260509213004 | 11 | 176 | 4.8 | 12.9 | 0.00 | 0.51 | 0.08 | 46 | 1005.7 |
| 20260509211602 | 11 | 172 | 8.0 | 12.9 | 0.00 | 0.51 | 0.08 | 38 | 1005.7 |
| 20260509210057 | 11 | 173 | 6.4 | 12.9 | 0.00 | 0.51 | 0.08 | 39 | 1005.9 |
| 20260509204550 | 11 | 161 | 4.8 | 11.3 | 0.00 | 0.51 | 0.08 | 41 | 1005.9 |
| 20260509203106 | 11 | 175 | 6.4 | 11.3 | 0.00 | 0.51 | 0.08 | 42 | 1006.1 |
| 20260509201540 | 10 | 175 | 8.0 | 11.3 | 0.00 | 0.51 | 0.08 | 38 | 1006.1 |
| 20260509200036 | 10 | 170 | 6.4 | 14.5 | 0.00 | 0.51 | 0.08 | 33 | 1006.2 |
| 20260509194502 | 10 | 181 | 3.2 | 8.0 | 0.00 | 0.51 | 0.08 | 31 | 1006.4 |
| 20260509193131 | 10 | 200 | 3.2 | 11.3 | 0.00 | 0.51 | 0.08 | 32 | 1006.6 |
| 20260509191526 | 10 | 180 | 4.8 | 16.1 | 0.00 | 0.51 | 0.08 | 37 | 1006.6 |
| 20260509190019 | 10 | 178 | 8.0 | 14.5 | 0.00 | 0.51 | 0.08 | 45 | 1006.7 |
| 20260509184513 | 11 | 177 | 8.0 | 12.9 | 0.00 | 0.51 | 0.08 | 50 | 1006.8 |
| 20260509183013 | 11 | 158 | 8.0 | 16.1 | 0.00 | 0.51 | 0.08 | 52 | 1006.8 |
| 20260509181502 | 11 | 156 | 11.3 | 19.3 | 0.00 | 0.51 | 0.08 | 50 | 1006.8 |
| 20260509180106 | 11 | 175 | 11.3 | 19.3 | 0.03 | 0.51 | 0.08 | 41 | 1006.8 |
| 20260509174551 | 10 | 172 | 6.4 | 16.1 | 0.03 | 0.51 | 0.08 | 36 | 1006.7 |
| 20260509173046 | 10 | 135 | 6.4 | 12.9 | 0.03 | 0.51 | 0.08 | 31 | 1006.7 |
| 20260509171541 | 10 | 191 | 9.7 | 17.7 | 0.03 | 0.51 | 0.08 | 31 | 1006.8 |
| 20260509170037 | 10 | 202 | 11.3 | 19.3 | 0.00 | 0.48 | 0.05 | 28 | 1007.0 |
| 20260509164533 | 10 | 142 | 9.7 | 19.3 | 0.03 | 0.48 | 0.05 | 22 | 1007.1 |
| 20260509163058 | 10 | 232 | 9.7 | 19.3 | 0.05 | 0.64 | 0.05 | 16 | 1007.3 |
| 20260509161557 | 10 | 168 | 6.4 | 16.1 | 0.05 | 0.64 | 0.05 | 13 | 1007.6 |
| 20260509160019 | 10 | 169 | 3.2 | 11.3 | 0.10 | 0.64 | 0.05 | 11 | 1007.7 |
| 20260509154520 | 9 | 141 | 1.6 | 4.8 | 0.08 | 0.61 | 0.03 | 10 | 1008.0 |
| 20260509153012 | 8 | 87 | 0.0 | 0.0 | 0.08 | 0.58 | 0.58 | 11 | 1008.3 |
| 20260509151503 | 7 | 10 | 0.0 | 0.0 | 0.08 | 0.56 | 0.56 | 15 | 1008.5 |
| 20260509150058 | 7 | 29 | 0.0 | 0.0 | 0.05 | 0.53 | 0.53 | 15 | 1008.6 |
| 20260509144604 | 7 | 31 | 0.0 | 0.0 | 0.08 | 0.53 | 0.53 | 16 | 1008.8 |
| 20260509143055 | 7 | 355 | 1.6 | 3.2 | 0.08 | 0.51 | 0.51 | 17 | 1008.9 |
| 20260509141555 | 6 | 28 | 0.0 | 3.2 | 0.08 | 0.48 | 0.48 | 18 | 1008.8 |
| 20260509140054 | 6 | 355 | 0.0 | 3.2 | 0.10 | 0.48 | 0.48 | 19 | 1008.8 |
| 20260509134554 | 6 | 5 | 1.6 | 4.8 | 0.13 | 0.46 | 0.46 | 21 | 1008.8 |
| 20260509133051 | 6 | 341 | 0.0 | 3.2 | 0.15 | 0.43 | 0.43 | 21 | 1008.9 |
| 20260509131551 | 6 | 5 | 0.0 | 3.2 | 0.15 | 0.41 | 0.41 | 20 | 1008.7 |
| 20260509130100 | 6 | 346 | 1.6 | 3.2 | 0.15 | 0.38 | 0.38 | 21 | 1008.7 |
| 20260509124549 | 5 | 170 | 0.0 | 0.0 | 0.10 | 0.33 | 0.33 | 22 | 1009.0 |
| 20260509123051 | 5 | 170 | 0.0 | 0.0 | 0.05 | 0.28 | 0.28 | 23 | 1009.2 |
| 20260509121545 | 5 | 170 | 0.0 | 0.0 | 0.05 | 0.25 | 0.25 | 24 | 1009.2 |
| 20260509120044 | 5 | 170 | 0.0 | 0.0 | 0.03 | 0.23 | 0.23 | 25 | 1009.2 |
| 20260509114544 | 4 | 170 | 0.0 | 0.0 | 0.03 | 0.23 | 0.23 | 27 | 1009.3 |
| 20260509113042 | 4 | 170 | 0.0 | 1.6 | 0.03 | 0.23 | 0.23 | 28 | 1009.3 |
| 20260509111539 | 3 | 170 | 0.0 | 0.0 | 0.00 | 0.20 | 0.20 | 30 | 1009.2 |
| 20260509110038 | 3 | 170 | 0.0 | 3.2 | 0.00 | 0.20 | 0.20 | 31 | 1009.1 |
| 20260509104538 | 3 | 170 | 0.0 | 0.0 | 0.03 | 0.20 | 0.20 | 32 | 1009.1 |
| 20260509103034 | 3 | 170 | 0.0 | 0.0 | 0.03 | 0.20 | 0.20 | 34 | 1008.9 |
| 20260509101538 | 3 | 170 | 0.0 | 1.6 | 0.05 | 0.20 | 0.20 | 35 | 1008.8 |
| 20260509100035 | 3 | 170 | 0.0 | 1.6 | 0.05 | 0.20 | 0.20 | 37 | 1008.8 |
| 20260509094532 | 3 | 170 | 0.0 | 1.6 | 0.03 | 0.18 | 0.18 | 40 | 1009.0 |
| 20260509093031 | 3 | 136 | 0.0 | 4.8 | 0.03 | 0.18 | 0.18 | 40 | 1009.1 |
| 20260509091529 | 2 | 173 | 0.0 | 4.8 | 0.00 | 0.15 | 0.15 | 41 | 1009.4 |
| 20260509090029 | 2 | 161 | 0.0 | 0.0 | 0.00 | 0.15 | 0.15 | 40 | 1009.4 |
| 20260509084534 | 2 | 161 | 0.0 | 0.0 | 0.00 | 0.15 | 0.15 | 39 | 1009.6 |
| 20260509083034 | 2 | 161 | 0.0 | 0.0 | 0.00 | 0.15 | 0.15 | 40 | 1009.6 |
| 20260509081528 | 2 | 161 | 0.0 | 0.0 | 0.00 | 0.15 | 0.15 | 41 | 1009.7 |
| 20260509080034 | 2 | 161 | 0.0 | 0.0 | 0.00 | 0.15 | 0.15 | 41 | 1009.7 |
| 20260509074524 | 2 | 161 | 0.0 | 0.0 | 0.00 | 0.15 | 0.15 | 44 | 1009.6 |
| 20260509073021 | 2 | 161 | 0.0 | 0.0 | 0.00 | 0.15 | 0.15 | 45 | 1009.6 |
| 20260509071520 | 1 | 161 | 0.0 | 0.0 | 0.00 | 0.15 | 0.15 | 46 | 1009.6 |
| 20260509070120 | 1 | 161 | 0.0 | 0.0 | 0.00 | 0.15 | 0.15 | 50 | 1009.7 |
| 20260509064521 | 1 | 161 | 0.0 | 0.0 | 0.00 | 0.15 | 0.15 | 53 | 1009.7 |
| 20260509063013 | 1 | 161 | 0.0 | 0.0 | 0.00 | 0.15 | 0.15 | 56 | 1009.9 |
| 20260509061512 | 1 | 161 | 0.0 | 0.0 | 0.00 | 0.15 | 0.15 | 58 | 1010.1 |
| 20260509060010 | 2 | 161 | 0.0 | 0.0 | 0.00 | 0.15 | 0.15 | 60 | 1010.2 |
| 20260509054507 | 2 | 161 | 0.0 | 0.0 | 0.00 | 0.15 | 0.15 | 62 | 1010.2 |
| 20260509053003 | 2 | 161 | 0.0 | 0.0 | 0.00 | 0.15 | 0.15 | 64 | 1010.4 |
| 20260509051503 | 3 | 161 | 0.0 | 0.0 | 0.00 | 0.15 | 0.15 | 66 | 1010.6 |
| 20260509050136 | 3 | 161 | 0.0 | 0.0 | 0.00 | 0.15 | 0.15 | 67 | 1010.5 |
| 20260509044603 | 3 | 161 | 0.0 | 0.0 | 0.00 | 0.15 | 0.15 | 67 | 1010.7 |
| 20260509043025 | 3 | 161 | 0.0 | 0.0 | 0.00 | 0.15 | 0.15 | 68 | 1010.8 |
| 20260509041529 | 4 | 161 | 0.0 | 0.0 | 0.00 | 0.15 | 0.15 | 67 | 1010.7 |
| 20260509040022 | 3 | 161 | 0.0 | 0.0 | 0.00 | 0.15 | 0.15 | 69 | 1010.5 |
| 20260509034521 | 3 | 161 | 0.0 | 0.0 | 0.00 | 0.15 | 0.15 | 70 | 1010.5 |
| 20260509033021 | 4 | 161 | 0.0 | 0.0 | 0.00 | 0.15 | 0.15 | 71 | 1010.7 |